Tracking 35051 objects as of 17-Aug-2026
HD Live streaming from Space Station
objects crossing your sky now

STARLINK-37918

Track STARLINK-37918 now!
10-day predictions
STARLINK-37918 is classified as:


NORAD ID: 69831
Int'l Code: 2026-154N
Launch date: July 5, 2026
Source: United States (US)
Launch site: AIR FORCE EASTERN TEST RANGE (AFETR)
Your satellite tracking list
Your tracking list is empty




NASA's NSSDC Master Catalog

Two Line Element Set (TLE):
1 69831U 26154N   26229.58335648  .00057993  00000-0  16624-2 0  9992
2 69831  53.1592 130.4279 0001395 104.1841  89.2675 15.35367446  6026
Source of the keplerian elements: AFSPC